Date String (YYYY-MM-DD hh:mm:ss) UTC,Instrument flags,absolute air pressure of the measurement (hPa),sample flow rate (lpm),inlet stack bypass flow (lpm),air temperature of the measurement (°C),ambient temperature measured by the external sensor (°C),aerosol sample conditioner tube jacket temperature (°C),OPC LED temperature (°C),internal box temperature (°C),relative humidity of the measurement (%),span deviation,mass concentration of particles derived from Lorenz-Mie calculation of OPC scattering (μg/m³),mass concentration of particles derived from Lorenz-Mie calculation of OPC scattering (μg/m³),mass concentration of particles derived from Lorenz-Mie calculation of OPC scattering (μg/m³)
DateTimeUTC,F1_M11,P_M11,Q1_M11,Q2_M11,T1_M11,T2_M11,T3_M11,T4_M11,T5_M11,U1_M11,ZSPAN_M11,X0_M11,X2_M11,X1_M11
2023-11-18 13:00:00,SystemResetWarning,0829.8,5.01,000.00,022.7,021.6,000.0,031.1,024.1,15.4,0000.0,0007.05,0003.16,0002.71
2023-11-18 13:01:00,SystemResetWarning,0829.8,5.01,000.00,022.7,021.6,000.0,031.1,024.1,16.1,0000.0,0007.58,0003.19,0002.77
2023-11-18 13:02:00,SystemResetWarning,0829.8,5.00,000.00,022.7,021.7,000.0,031.1,024.1,16.2,0000.0,0007.92,0003.24,0002.82
2023-11-18 13:03:00,SystemResetWarning,0829.8,5.00,000.00,022.7,021.7,000.0,031.1,024.1,16.2,0000.0,0007.71,0003.31,0002.92
2023-11-18 13:04:00,SystemResetWarning,0829.8,5.00,000.00,022.8,021.7,000.0,031.1,024.1,16.5,0000.0,0007.75,0003.38,0003.03
2023-11-18 13:05:00,SystemResetWarning,0829.9,4.99,000.00,022.8,021.8,000.0,031.1,024.1,16.4,0000.0,0007.86,0003.44,0003.10
2023-11-18 13:06:00,SystemResetWarning,0829.9,5.00,000.00,022.8,021.8,000.0,031.1,024.1,16.1,0000.0,0008.37,0003.51,0003.13
2023-11-18 13:07:00,SystemResetWarning,0829.9,5.01,000.00,022.8,021.8,000.0,031.1,024.1,15.9,0000.0,0009.22,0003.58,0003.18
2023-11-18 13:08:00,SystemResetWarning,0829.9,5.01,000.00,022.8,021.9,000.0,031.1,024.1,16.0,0000.0,0009.55,0003.63,0003.23
2023-11-18 13:09:00,SystemResetWarning,0829.9,5.00,000.00,022.8,021.9,000.0,031.1,024.1,16.2,0000.0,0009.67,0003.71,0003.30
2023-11-18 13:10:00,SystemResetWarning,0829.8,5.00,000.00,022.8,021.9,000.0,031.1,024.1,16.3,0000.0,0009.79,0003.81,0003.37
2023-11-18 13:11:00,SystemResetWarning,0829.8,5.00,000.00,022.8,021.9,000.0,031.1,024.1,16.4,0000.0,0009.41,0003.88,0003.41
2023-11-18 13:12:00,SystemResetWarning,0829.8,4.99,000.00,022.8,021.9,000.0,031.1,024.1,16.7,0000.0,0009.13,0003.93,0003.45
2023-11-18 13:13:00,SystemResetWarning,0829.8,4.99,000.00,022.8,021.9,000.0,031.1,024.1,16.9,0000.0,0008.76,0003.96,0003.49
2023-11-18 13:14:00,SystemResetWarning,0829.8,5.00,000.00,022.8,021.9,000.0,031.1,024.1,16.9,0000.0,0008.86,0004.01,0003.52
2023-11-18 13:15:00,SystemResetWarning,0829.8,5.01,000.00,022.8,021.9,000.0,031.1,024.1,17.1,0000.0,0008.94,0004.03,0003.53
2023-11-18 13:16:00,SystemResetWarning,0829.9,5.00,000.00,022.8,021.8,000.0,031.1,024.2,16.9,0000.0,0009.13,0004.04,0003.54
2023-11-18 13:17:00,SystemResetWarning,0829.9,5.01,000.00,022.8,021.8,000.0,031.1,024.2,16.1,0000.0,0008.97,0004.04,0003.56
2023-11-18 13:18:00,SystemResetWarning,0829.9,5.00,000.00,022.8,021.8,000.0,031.1,024.1,16.0,0000.0,0008.09,0004.01,0003.57
2023-11-18 13:19:00,SystemResetWarning,0829.9,5.00,000.00,022.8,021.7,000.0,031.1,024.1,16.2,0002.9,0007.49,0004.05,0003.59
2023-11-18 13:20:00,SystemResetWarning,0829.9,4.99,000.00,022.8,021.7,000.0,031.1,024.1,15.7,0001.2,0007.69,0004.10,0003.61
2023-11-18 13:21:00,SystemResetWarning,0829.9,4.99,000.00,022.8,021.7,000.0,031.1,024.1,15.4,0000.0,0008.02,0004.13,0003.64
2023-11-18 13:22:00,SystemResetWarning,0829.9,5.00,000.00,022.7,021.7,000.0,031.1,024.1,15.0,0000.0,0008.67,0004.14,0003.65
2023-11-18 13:23:00,SystemResetWarning,0829.9,5.01,000.00,022.7,021.7,000.0,031.1,024.1,14.8,0000.0,0008.72,0004.14,0003.66
2023-11-18 13:24:00,SystemResetWarning,0829.9,5.01,000.00,022.7,021.7,000.0,031.1,024.1,14.9,0000.0,0009.05,0004.14,0003.67
2023-11-18 13:25:00,SystemResetWarning,0830.0,4.98,000.00,022.7,021.7,000.0,031.1,024.0,14.9,0000.6,0009.03,0004.18,0003.69
2023-11-18 13:26:00,SystemResetWarning,0830.0,5.00,000.00,022.7,021.7,000.0,031.1,024.0,14.8,0000.2,0008.99,0004.17,0003.68
2023-11-18 13:27:00,SystemResetWarning,0830.0,5.01,000.00,022.7,021.6,000.0,031.1,024.0,14.7,0000.0,0008.71,0004.14,0003.66
2023-11-18 13:28:00,SystemResetWarning,0830.0,5.00,000.00,022.7,021.6,000.0,031.1,024.0,14.7,0000.0,0008.83,0004.12,0003.62
2023-11-18 13:29:00,SystemResetWarning,0830.0,5.00,000.00,022.7,021.6,000.0,031.1,024.0,14.7,0000.0,0008.98,0004.09,0003.58
2023-11-18 13:30:00,SystemResetWarning,0830.0,5.01,000.00,022.7,021.6,000.0,031.1,024.0,14.8,0000.0,0008.91,0004.02,0003.52
2023-11-18 13:31:00,SystemResetWarning,0830.0,5.00,000.00,022.7,021.6,000.0,031.1,024.0,14.9,0000.0,0008.93,0003.96,0003.46
2023-11-18 13:32:00,SystemResetWarning,0830.0,5.00,000.00,022.7,021.6,000.0,031.1,024.0,15.2,0000.0,0008.45,0003.86,0003.38
2023-11-18 13:33:00,SystemResetWarning,0830.0,5.00,000.00,022.7,021.5,000.0,031.1,024.0,15.4,0001.3,0007.90,0003.78,0003.31
2023-11-18 13:34:00,SystemResetWarning,0830.0,5.00,000.00,022.6,021.5,000.0,031.1,023.9,15.1,0002.2,0007.61,0003.70,0003.26
2023-11-18 13:35:00,SystemResetWarning,0830.0,5.00,000.00,022.6,021.5,000.0,031.1,023.9,14.7,0000.5,0007.33,0003.66,0003.23
2023-11-18 13:36:00,SystemResetWarning,0830.0,5.00,000.00,022.6,021.5,000.0,031.0,023.9,15.0,0000.0,0007.98,0003.59,0003.19
2023-11-18 13:37:00,SystemResetWarning,0830.0,5.01,000.00,022.6,021.4,000.0,031.0,023.9,15.4,0000.3,0008.08,0003.59,0003.19
2023-11-18 13:38:00,SystemResetWarning,0830.0,5.00,000.00,022.6,021.4,000.0,031.0,023.9,15.4,0000.1,0008.45,0003.63,0003.21
2023-11-18 13:39:00,SystemResetWarning,0830.0,4.99,000.00,022.6,021.4,000.0,031.0,023.9,15.4,0000.5,0008.52,0003.68,0003.25
2023-11-18 13:40:00,SystemResetWarning,0830.0,4.99,000.00,022.6,021.4,000.0,031.0,023.9,15.5,0001.1,0008.27,0003.69,0003.27
2023-11-18 13:41:00,SystemResetWarning,0830.0,5.00,000.00,022.6,021.4,000.0,031.0,023.8,15.8,0002.5,0008.50,0003.70,0003.29
2023-11-18 13:42:00,SystemResetWarning,0830.0,5.01,000.00,022.6,021.4,000.0,031.0,023.9,16.2,0002.7,0008.79,0003.75,0003.34
2023-11-18 13:43:00,SystemResetWarning,0830.0,5.00,000.00,022.6,021.4,000.0,031.0,023.9,16.5,0003.2,0008.86,0003.81,0003.40
2023-11-18 13:44:00,SystemResetWarning,0829.9,5.00,000.00,022.6,021.4,000.0,031.0,023.9,16.7,0000.9,0009.47,0003.86,0003.45
2023-11-18 13:45:00,SystemResetWarning,0830.0,5.01,000.00,022.6,021.4,000.0,031.0,023.9,16.8,0000.0,0010.13,0003.94,0003.51
2023-11-18 13:46:00,SystemResetWarning,0830.0,5.00,000.00,022.5,021.4,000.0,031.0,023.8,16.1,0000.0,0010.05,0004.01,0003.57
2023-11-18 13:47:00,SystemResetWarning,0829.9,5.00,000.00,022.5,021.4,000.0,031.0,023.8,15.7,0001.7,0010.10,0004.15,0003.66
2023-11-18 13:48:00,SystemResetWarning,0829.9,5.00,000.00,022.5,021.3,000.0,030.9,023.8,15.6,0002.8,0010.21,0004.25,0003.75
2023-11-18 13:49:00,SystemResetWarning,0829.9,4.99,000.00,022.5,021.3,000.0,030.9,023.8,15.6,0003.0,0010.35,0004.33,0003.83
2023-11-18 13:50:00,SystemResetWarning,0829.9,5.00,000.00,022.5,021.3,000.0,030.9,023.8,15.7,0002.8,0010.45,0004.41,0003.91
2023-11-18 13:51:00,SystemResetWarning,0829.9,5.01,000.00,022.5,021.3,000.0,030.9,023.8,15.6,0002.7,0010.55,0004.51,0004.01
2023-11-18 13:52:00,SystemResetWarning,0829.8,5.01,000.00,022.5,021.3,000.0,030.9,023.8,15.1,0003.4,0011.12,0004.59,0004.08
2023-11-18 13:53:00,SystemResetWarning,0829.9,4.99,000.00,022.5,021.3,000.0,030.9,023.8,14.9,0003.3,0011.77,0004.61,0004.10
2023-11-18 13:54:00,SystemResetWarning,0829.9,4.99,000.00,022.5,021.3,000.0,030.9,023.8,14.8,0003.1,0011.69,0004.61,0004.12
2023-11-18 13:55:00,SystemResetWarning,0829.9,5.00,000.00,022.5,021.3,000.0,030.9,023.7,14.8,0003.1,0011.58,0004.64,0004.16
2023-11-18 13:56:00,SystemResetWarning,0829.9,5.00,000.00,022.5,021.4,000.0,030.9,023.8,14.4,0003.4,0010.91,0004.66,0004.19
2023-11-18 13:57:00,SystemResetWarning,0829.9,5.01,000.00,022.5,021.3,000.0,030.9,023.8,14.1,0003.3,0011.03,0004.70,0004.21
2023-11-18 13:58:00,SystemResetWarning,0829.9,5.00,000.00,022.4,021.3,000.0,030.9,023.7,14.2,0003.2,0010.80,0004.62,0004.14
2023-11-18 13:59:00,SystemResetWarning,0829.9,5.00,000.00,022.4,021.3,000.0,030.9,023.7,14.6,0003.2,0010.42,0004.50,0004.05
